GW3103 Weather Reports


time (UTC)temp
C
wind
direction
speed
KPH
gust
KPH
rain 1hr
cm
rain 24hr
cm
rain mn
cm
humidity
%
barometer
mb
20260506092502 18 210 6.4 8.0 0.00 0.00 0.00 72 1007.2
20260506091958 18 30 0.0 1.6 0.00 0.00 0.00 72 1007.1
20260506091456 18 296 1.6 3.2 0.00 0.00 0.00 71 1007.4
20260506090953 18 8 6.4 8.0 0.00 0.00 0.00 71 1007.2
20260506090451 18 330 4.8 8.0 0.00 0.00 0.00 71 1007.3
20260506085947 18 26 0.0 1.6 0.00 0.00 0.00 70 1007.1
20260506085444 18 30 0.0 0.0 0.00 0.00 0.00 71 1007.3
20260506084940 18 57 0.0 0.0 0.00 0.00 0.00 70 1007.3
20260506084437 17 253 4.8 4.8 0.00 0.00 0.00 70 1007.5
20260506083933 18 333 1.6 3.2 0.00 0.00 0.00 70 1007.2
20260506083431 17 4 1.6 1.6 0.00 0.00 0.00 70 1007.2
20260506082928 17 45 0.0 0.0 0.00 0.00 0.00 70 1007.4
20260506082425 17 46 0.0 0.0 0.00 0.00 0.00 72 1007.4
20260506081921 17 20 1.6 1.6 0.00 0.00 0.00 70 1007.4
20260506081420 17 76 0.0 1.6 0.00 0.00 0.00 71 1007.5
20260506080916 17 49 0.0 0.0 0.00 0.00 0.00 73 1007.5
20260506080413 17 51 0.0 0.0 0.00 0.00 0.00 72 1007.5
20260506073357 16 47 0.0 1.6 0.00 0.00 0.00 74 1007.4
20260506072854 16 53 0.0 0.0 0.00 0.00 0.00 76 1007.5
20260506072351 16 50 0.0 0.0 0.00 0.00 0.00 75 1007.6
20260506071849 16 47 0.0 0.0 0.00 0.00 0.00 76 1007.7
20260506071347 16 46 0.0 0.0 0.00 0.00 0.00 76 1007.7
20260506070843 16 50 0.0 1.6 0.00 0.00 0.00 75 1007.7
20260506070341 16 55 0.0 0.0 0.00 0.00 0.00 75 1007.7
20260506062318 17 45 0.0 0.0 0.00 0.00 0.00 67 1007.8
20260506061814 17 50 0.0 0.0 0.00 0.00 0.00 67 1008.0
20260506061310 17 56 0.0 0.0 0.00 0.00 0.00 66 1008.0
20260506060809 18 51 0.0 0.0 0.00 0.00 0.00 66 1008.2
20260506060307 18 41 0.0 0.0 0.00 0.00 0.00 64 1008.3
20260506051238 19 35 0.0 0.0 0.00 0.00 0.00 61 1008.4
20260506050736 19 48 0.0 0.0 0.00 0.00 0.00 61 1008.4
20260506050233 19 35 1.6 3.2 0.00 0.00 0.00 61 1008.6
20260506044724 20 325 1.6 3.2 0.00 0.00 0.00 60 1008.7
20260506044221 20 275 4.8 4.8 0.00 0.00 0.00 59 1008.7
20260506043718 19 24 1.6 3.2 0.00 0.00 0.00 60 1008.7
20260506043216 19 40 0.0 1.6 0.00 0.00 0.00 60 1008.5
20260506042714 20 37 0.0 0.0 0.00 0.00 0.00 59 1008.4
20260506042212 20 97 0.0 0.0 0.00 0.00 0.00 59 1008.8
20260506041711 20 67 1.6 3.2 0.00 0.00 0.00 59 1008.6
20260506041208 20 183 1.6 3.2 0.00 0.00 0.00 58 1008.5
20260506040705 20 332 0.0 1.6 0.00 0.00 0.00 59 1008.7
20260506040202 20 142 3.2 3.2 0.00 0.00 0.00 58 1008.7
20260506035658 20 7 3.2 3.2 0.00 0.33 0.33 58 1008.6
20260506035155 20 191 3.2 8.0 0.00 0.33 0.33 57 1008.6
20260506034646 20 54 3.2 4.8 0.00 0.33 0.33 56 1008.7
20260506034143 20 138 1.6 1.6 0.00 0.33 0.33 56 1008.5
20260506033641 20 249 3.2 4.8 0.00 0.33 0.33 56 1008.4
20260506033137 21 133 1.6 3.2 0.00 0.33 0.33 55 1008.3
20260506032635 21 279 6.4 8.0 0.00 0.33 0.33 55 1008.4
20260506032131 21 256 9.7 12.9 0.00 0.33 0.33 54 1008.5
20260506031628 21 87 4.8 8.0 0.00 0.33 0.33 54 1008.3
20260506031125 21 213 3.2 3.2 0.00 0.33 0.33 54 1008.5
20260506030624 21 359 1.6 3.2 0.00 0.33 0.33 54 1008.4
20260506030121 21 183 4.8 8.0 0.00 0.33 0.33 53 1008.2
20260506025618 21 296 4.8 9.7 0.00 0.33 0.33 53 1008.3
20260506025113 21 225 9.7 14.5 0.00 0.33 0.33 52 1008.4
20260506024611 21 228 4.8 8.0 0.00 0.33 0.33 52 1008.4
20260506024107 22 42 4.8 9.7 0.00 0.33 0.33 52 1008.5
20260506023603 22 215 8.0 16.1 0.00 0.33 0.33 52 1008.6
20260506023101 21 266 6.4 8.0 0.00 0.33 0.33 52 1008.6
20260506022558 21 43 4.8 4.8 0.00 0.33 0.33 52 1008.5
20260506022056 22 308 4.8 4.8 0.00 0.33 0.33 51 1008.6
20260506021553 22 236 6.4 9.7 0.00 0.33 0.33 51 1008.4
20260506021050 22 60 0.0 1.6 0.00 0.33 0.33 52 1008.5
20260506020547 22 21 3.2 4.8 0.00 0.33 0.33 51 1008.5
20260506020045 22 209 8.0 14.5 0.00 0.33 0.33 50 1008.5
20260506015542 22 3 4.8 9.7 0.00 0.33 0.33 50 1008.4
20260506015039 22 192 4.8 4.8 0.00 0.33 0.33 50 1008.5
20260506014537 22 281 1.6 3.2 0.00 0.33 0.33 50 1008.3
20260506014032 22 222 1.6 3.2 0.00 0.33 0.33 50 1008.4
20260506013531 22 26 1.6 3.2 0.00 0.33 0.33 50 1008.2
20260506013026 22 27 1.6 1.6 0.00 0.33 0.33 51 1008.3
20260506012522 22 151 4.8 8.0 0.00 0.33 0.33 50 1008.2
20260506012019 22 234 4.8 8.0 0.00 0.33 0.33 49 1008.0
20260506011517 22 10 0.0 1.6 0.00 0.33 0.33 49 1007.9
20260506011013 23 352 0.0 1.6 0.00 0.33 0.33 49 1007.9
20260506010508 23 355 1.6 1.6 0.00 0.33 0.33 48 1007.7
20260506010004 23 202 6.4 12.9 0.00 0.33 0.33 48 1007.7
20260506005501 23 244 3.2 4.8 0.00 0.33 0.33 47 1007.6
20260506004956 23 300 6.4 11.3 0.00 0.33 0.33 48 1007.8
20260506004454 22 287 1.6 3.2 0.00 0.33 0.33 49 1007.7
20260506003950 23 66 0.0 1.6 0.00 0.33 0.33 48 1007.5
20260506003447 23 224 3.2 8.0 0.00 0.33 0.33 47 1007.5
20260506002943 23 43 0.0 1.6 0.00 0.33 0.33 47 1007.4
20260506002439 23 216 4.8 8.0 0.00 0.33 0.33 45 1007.6
20260506001935 23 207 4.8 4.8 0.00 0.33 0.33 45 1007.3
20260506001432 23 47 1.6 3.2 0.00 0.33 0.33 45 1007.4
20260506000929 23 204 4.8 9.7 0.00 0.33 0.33 45 1007.2
20260506000427 23 60 1.6 3.2 0.00 0.33 0.33 45 1007.3
20260505235923 24 203 6.4 9.7 0.00 0.33 0.33 44 1007.1
20260505235422 24 274 4.8 4.8 0.00 0.33 0.33 44 1007.0
20260505234918 24 74 3.2 3.2 0.00 0.33 0.33 43 1007.1
20260505234416 24 201 4.8 4.8 0.00 0.33 0.33 43 1007.1
20260505233912 24 261 4.8 4.8 0.00 0.33 0.33 44 1007.0
20260505233410 25 47 0.0 0.0 0.00 0.33 0.33 45 1007.1
20260505232907 25 45 0.0 0.0 0.00 0.33 0.33 43 1007.1
20260505232405 25 74 1.6 1.6 0.00 0.33 0.33 44 1006.9
20260505231902 25 352 3.2 3.2 0.00 0.33 0.33 43 1007.0
20260505231359 25 44 1.6 1.6 0.00 0.33 0.33 43 1006.9
20260505230857 25 195 1.6 3.2 0.00 0.33 0.33 43 1006.9
20260505230354 25 38 1.6 1.6 0.00 0.33 0.33 44 1006.9
20260505225851 25 197 6.4 9.7 0.00 0.33 0.33 43 1006.8
20260505225348 25 312 3.2 4.8 0.00 0.33 0.33 43 1006.8
20260505224843 26 233 4.8 4.8 0.00 0.33 0.33 42 1006.8
20260505224341 25 163 4.8 8.0 0.00 0.33 0.33 43 1006.6
20260505223838 26 348 1.6 1.6 0.00 0.33 0.33 44 1006.3
20260505223335 26 300 9.7 11.3 0.00 0.33 0.33 42 1006.6
20260505222831 26 99 1.6 1.6 0.00 0.33 0.33 42 1006.5
20260505222327 26 4 3.2 3.2 0.00 0.33 0.33 42 1006.6
20260505221824 26 45 1.6 1.6 0.00 0.33 0.33 43 1006.4
20260505221321 26 247 8.0 11.3 0.00 0.33 0.33 41 1006.3
20260505220818 26 283 8.0 12.9 0.00 0.33 0.33 42 1006.5
20260505220315 26 280 8.0 9.7 0.00 0.33 0.33 41 1006.4
20260505215813 26 243 3.2 4.8 0.00 0.33 0.33 41 1006.5
20260505215311 26 269 4.8 4.8 0.00 0.33 0.33 41 1006.5
20260505214808 26 100 4.8 9.7 0.00 0.33 0.33 41 1006.2
20260505214306 26 275 1.6 3.2 0.00 0.33 0.33 41 1006.3
20260505213802 26 345 1.6 3.2 0.00 0.33 0.33 41 1006.4
20260505213301 26 49 8.0 11.3 0.00 0.33 0.33 41 1006.5
20260505212755 26 221 1.6 1.6 0.00 0.33 0.33 40 1006.5
20260505212254 27 270 4.8 4.8 0.00 0.33 0.33 39 1006.5
20260505211750 27 259 4.8 8.0 0.00 0.33 0.33 39 1006.3
20260505211248 27 272 8.0 9.7 0.00 0.33 0.33 39 1006.1
20260505210743 27 191 1.6 3.2 0.00 0.33 0.33 39 1006.4
20260505210241 27 41 4.8 8.0 0.00 0.33 0.33 40 1006.2
20260505205738 27 210 8.0 9.7 0.00 0.33 0.33 38 1006.2
20260505205236 27 259 14.5 20.9 0.00 0.33 0.33 39 1006.3
20260505204732 27 359 9.7 12.9 0.00 0.33 0.33 40 1006.2
20260505204230 27 282 8.0 9.7 0.00 0.33 0.33 40 1006.2
20260505203727 27 178 4.8 11.3 0.00 0.33 0.33 39 1006.2
20260505203224 27 242 6.4 8.0 0.00 0.33 0.33 40 1006.4
20260505202720 27 39 3.2 3.2 0.00 0.33 0.33 40 1006.2
20260505202216 28 33 3.2 3.2 0.00 0.33 0.33 40 1006.0
20260505201713 29 57 4.8 4.8 0.00 0.33 0.33 38 1006.3
20260505201211 29 305 3.2 4.8 0.00 0.33 0.33 36 1006.2
20260505200708 29 266 4.8 4.8 0.00 0.33 0.33 37 1006.1
20260505200205 27 263 6.4 9.7 0.00 0.33 0.33 36 1006.1
20260505195701 27 7 9.7 14.5 0.00 0.33 0.33 36 1006.1
20260505195158 27 145 16.1 20.9 0.00 0.33 0.33 36 1006.4
20260505194655 27 298 14.5 20.9 0.00 0.33 0.33 35 1006.4
20260505194151 27 276 11.3 17.7 0.00 0.33 0.33 35 1006.2
20260505193648 27 292 14.5 20.9 0.00 0.33 0.33 35 1006.4
20260505193145 27 282 11.3 16.1 0.00 0.33 0.33 34 1006.6
20260505192644 26 281 14.5 20.9 0.00 0.33 0.33 37 1006.5
20260505192141 27 201 14.5 20.9 0.00 0.33 0.33 36 1006.7
20260505191639 28 12 9.7 12.9 0.00 0.33 0.33 35 1006.7
20260505191137 27 319 4.8 4.8 0.00 0.33 0.33 37 1006.7
20260505190633 27 236 12.9 20.9 0.00 0.33 0.33 36 1007.1
20260505190132 27 270 4.8 8.0 0.00 0.33 0.33 37 1006.8
20260505185630 27 254 11.3 16.1 0.00 0.33 0.33 36 1006.9
20260505185126 27 325 4.8 8.0 0.00 0.33 0.33 37 1007.4
20260505184623 27 11 4.8 8.0 0.00 0.33 0.33 36 1007.4
20260505184120 27 261 8.0 12.9 0.00 0.33 0.33 36 1007.1
20260505183616 27 289 14.5 20.9 0.00 0.33 0.33 36 1007.2
20260505183114 26 254 14.5 17.7 0.00 0.33 0.33 37 1007.2
20260505182610 27 241 14.5 22.5 0.00 0.33 0.33 36 1007.5
20260505182107 27 267 14.5 20.9 0.00 0.33 0.33 36 1007.4
20260505181604 27 235 17.7 27.4 0.00 0.33 0.33 36 1007.5
20260505181101 27 286 14.5 20.9 0.00 0.33 0.33 38 1007.5
20260505180556 27 276 11.3 12.9 0.00 0.33 0.33 38 1007.6
20260505180055 27 230 16.1 22.5 0.00 0.33 0.33 38 1007.5
20260505175550 27 268 9.7 14.5 0.00 0.33 0.33 37 1007.9
20260505175047 27 280 9.7 12.9 0.00 0.33 0.33 39 1007.8
20260505174544 27 289 8.0 12.9 0.00 0.33 0.33 41 1007.8
20260505174039 27 19 8.0 14.5 0.00 0.33 0.33 43 1007.8
20260505173537 26 150 4.8 9.7 0.00 0.33 0.33 42 1007.8
20260505173033 26 264 8.0 11.3 0.00 0.33 0.33 44 1008.0
20260505172531 26 246 9.7 11.3 0.00 0.33 0.33 44 1007.8
20260505172027 26 355 11.3 16.1 0.00 0.33 0.33 43 1007.9
20260505171522 27 256 14.5 17.7 0.00 0.33 0.33 43 1007.9
20260505171020 26 343 11.3 14.5 0.00 0.33 0.33 44 1008.2
20260505170516 27 254 3.2 3.2 0.00 0.33 0.33 46 1008.0
20260505170013 27 297 4.8 8.0 0.00 0.33 0.33 45 1008.0
20260505165508 26 346 6.4 8.0 0.00 0.33 0.33 46 1008.0
20260505165004 26 313 3.2 3.2 0.00 0.33 0.33 47 1008.0
20260505164500 27 267 4.8 11.3 0.00 0.33 0.33 47 1008.2
20260505163958 26 111 1.6 3.2 0.00 0.33 0.33 49 1008.5
20260505163456 26 312 3.2 4.8 0.00 0.33 0.33 50 1008.6
20260505162956 26 320 1.6 3.2 0.00 0.33 0.33 49 1008.6
20260505162451 26 43 3.2 4.8 0.00 0.33 0.33 47 1008.6
20260505161948 26 349 4.8 4.8 0.00 0.33 0.33 50 1008.7
20260505161444 26 246 9.7 14.5 0.00 0.33 0.33 49 1008.5
20260505160942 25 265 8.0 11.3 0.00 0.33 0.33 48 1008.6
20260505160440 25 208 6.4 8.0 0.00 0.33 0.33 49 1008.8
20260505152910 23 25 1.6 3.2 0.00 0.33 0.33 53 1009.0
20260505152407 23 82 3.2 3.2 0.00 0.33 0.33 53 1008.9
20260505151902 23 317 1.6 1.6 0.00 0.33 0.33 55 1009.1
20260505151358 23 22 4.8 8.0 0.00 0.33 0.33 53 1009.0
20260505150855 23 290 4.8 4.8 0.00 0.33 0.33 53 1009.4
20260505150352 23 80 3.2 8.0 0.00 0.33 0.33 54 1009.3
20260505140317 21 189 4.8 8.0 0.00 0.33 0.33 62 1009.7
20260505130240 17 147 1.6 1.6 0.00 0.33 0.33 73 1010.4
20260505124731 17 127 3.2 4.8 0.00 0.33 0.33 74 1010.1
20260505124228 16 61 0.0 0.0 0.00 0.33 0.33 75 1010.1
20260505123723 17 47 1.6 1.6 0.00 0.33 0.33 74 1010.0
20260505123220 16 54 1.6 1.6 0.00 0.33 0.33 76 1010.1
20260505122716 16 59 0.0 0.0 0.00 0.33 0.33 76 1009.9
20260505122213 16 41 1.6 1.6 0.00 0.33 0.33 77 1010.1
20260505121705 16 226 1.6 4.8 0.00 0.33 0.33 78 1009.9
20260505121201 15 45 1.6 1.6 0.00 0.33 0.33 78 1010.1
20260505120657 15 40 1.6 3.2 0.00 0.33 0.33 81 1009.9
20260505120153 14 227 4.8 4.8 0.00 0.33 0.33 84 1009.8
20260505115647 13 166 3.2 3.2 0.00 0.33 0.33 89 1010.0
20260505115145 13 39 1.6 3.2 0.00 0.33 0.33 92 1010.0
20260505114642 12 56 0.0 0.0 0.00 0.33 0.33 94 1010.1
20260505114138 12 32 1.6 1.6 0.00 0.33 0.33 95 1009.7
20260505113635 12 33 1.6 1.6 0.00 0.33 0.33 96 1009.8
20260505113132 11 12 4.8 4.8 0.00 0.33 0.33 98 1009.9
20260505112628 11 38 3.2 3.2 0.00 0.33 0.33 98 1009.6
20260505112126 11 22 1.6 3.2 0.00 0.33 0.33 98 1009.6
20260505111620 11 36 1.6 1.6 0.00 0.33 0.33 98 1009.8
20260505111116 11 47 0.0 0.0 0.00 0.33 0.33 99 1009.7
20260505110612 12 49 0.0 0.0 0.00 0.33 0.33 99 1009.6
20260505110109 11 50 0.0 0.0 0.00 0.33 0.33 99 1009.6
20260505102045 10 44 0.0 0.0 0.00 0.33 0.33 98 1009.6
20260505101543 10 43 1.6 1.6 0.00 0.33 0.33 98 1009.7
20260505101039 10 41 0.0 0.0 0.00 0.33 0.33 98 1009.6
20260505100536 10 44 0.0 0.0 0.00 0.33 0.33 98 1009.4
20260505100033 11 41 0.0 0.0 0.00 0.33 0.33 98 1009.3
20260505095529 11 55 1.6 3.2 0.00 0.33 0.33 98 1009.0
20260505095026 11 42 0.0 0.0 0.00 0.33 0.33 98 1008.8
20260505094522 11 43 0.0 0.0 0.00 0.33 0.33 98 1009.1
20260505094019 11 42 0.0 0.0 0.00 0.33 0.33 97 1009.0
20260505093515 11 19 1.6 1.6 0.00 0.33 0.33 97 1009.0
20260505093013 11 45 0.0 0.0 0.00 0.33 0.33 97 1008.8